Weather History for Crestview, FL

Change the Weather History Date:

Thursday, November 3, 2011

  Actual Average Record
Temperature  
Mean Temperature 61 °F -  
Max Temperature 77 °F - - ()
Min Temperature 46 °F - - ()
Degree Days  
Heating Degree Days 4    
Growing Degree Days 11 (Base 50)    
Moisture  
Dew Point 57 °F    
Average Humidity 79    
Maximum Humidity 92    
Minimum Humidity 59    
Precipitation  
Precipitation 0.00 in - - ()
Sea Level Pressure  
Sea Level Pressure 30.03 in    
Wind  
Wind Speed 8 mph (SSW)    
Max Wind Speed 21 mph    
Max Gust Speed 31 mph    
Visibility 10 miles    
Events Rain    
T = Trace of Precipitation, MM = Missing Value Source: NWS Daily Summary

Daily Weather History Graph

Daily Weather History Graph

Search for Another Location

Airport:

Trip Planner

Search our weather history database for the weather conditions in past years. The results will help you decide how hot, cold, wet, or windy it might be!

Date:

Astronomy

Nov. 03, 2011 Rise Set
Actual Time 7:02 AM CDT 5:56 PM CDT
Civil Twilight 6:37 AM CDT 6:21 PM CDT
Nautical Twilight 6:08 AM CDT 6:50 PM CDT
Astronomical Twilight 5:40 AM CDT 7:18 PM CDT
Moon 1:55 PM CDT (11/3) 12:41 AM CDT (11/3)
Length of Visible Light 11h 44m
Length of Day
10h 54m
First Quarter, 60% of the Moon is Illuminated
Nov 3
First Quarter
Nov 10
Full
Nov 18
Last Quarter
Nov 25
New
Dec 2
First Quarter

Hourly Weather History & Observations

Time (CDT) Temp. Windchill Dew Point Humidity Pressure Visibility Wind Dir Wind Speed Gust Speed Precip Events Conditions
12:55 AM 46.4 °F - 44.1 °F 92% 30.18 in 10.0 mi Calm Calm - N/A   Partly Cloudy
1:55 AM 48.6 °F - 45.9 °F 90% 30.17 in 10.0 mi Calm Calm - N/A   Mostly Cloudy
2:55 AM 51.3 °F - 48.7 °F 91% 30.16 in 10.0 mi Calm Calm - N/A   Mostly Cloudy
3:55 AM 56.5 °F - 52.2 °F 85% 30.15 in 10.0 mi Variable 3.5 mph - N/A   Clear
4:55 AM 56.1 °F - 52.9 °F 89% 30.14 in 10.0 mi East 5.8 mph - N/A   Clear
5:55 AM 57.0 °F - 54.1 °F 90% 30.14 in 10.0 mi SE 4.6 mph - N/A   Clear
6:55 AM 55.9 °F - 53.4 °F 91% 30.14 in 10.0 mi Calm Calm - N/A   Scattered Clouds
7:55 AM 56.5 °F - 53.6 °F 90% 30.13 in 10.0 mi ESE 6.9 mph - N/A   Clear
8:55 AM 62.4 °F - 56.7 °F 81% 30.12 in 10.0 mi SE 6.9 mph - N/A   Scattered Clouds
9:55 AM 66.9 °F - 60.3 °F 79% 30.11 in 10.0 mi SSE 11.5 mph - N/A   Mostly Cloudy
10:14 AM 68.0 °F - 60.8 °F 78% 30.10 in 10.0 mi SSE 11.5 mph - N/A   Scattered Clouds
10:55 AM 72.5 °F - 63.3 °F 73% 30.10 in 10.0 mi SSE 17.3 mph 23.0 mph N/A   Scattered Clouds
11:55 AM 75.0 °F - 64.8 °F 70% 30.06 in 10.0 mi South 16.1 mph - N/A   Scattered Clouds
12:07 PM 75.2 °F - 64.4 °F 69% 30.04 in 10.0 mi SSE 17.3 mph - N/A Rain Light Rain
12:27 PM 75.2 °F - 64.4 °F 69% 30.04 in 10.0 mi SSE 15.0 mph - N/A   Mostly Cloudy
12:55 PM 74.8 °F - 64.6 °F 70% 30.02 in 10.0 mi South 17.3 mph 23.0 mph 0.00 in   Mostly Cloudy
1:55 PM 74.8 °F - 64.2 °F 69% 29.98 in 10.0 mi South 17.3 mph - N/A   Mostly Cloudy
2:55 PM 75.2 °F - 63.3 °F 66% 29.96 in 10.0 mi South 17.3 mph 26.5 mph N/A   Mostly Cloudy
3:55 PM 76.3 °F - 61.0 °F 59% 29.95 in 10.0 mi South 15.0 mph 26.5 mph N/A   Mostly Cloudy
4:49 PM 75.2 °F - 60.8 °F 61% 29.91 in 10.0 mi South 16.1 mph 23.0 mph N/A   Light Drizzle
4:55 PM 74.7 °F - 62.4 °F 66% 29.92 in 10.0 mi SSW 15.0 mph 23.0 mph 0.00 in   Light Drizzle
5:05 PM 75.2 °F - 62.6 °F 65% 29.91 in 10.0 mi SSW 13.8 mph 20.7 mph N/A   Mostly Cloudy
5:47 PM 73.4 °F - 66.2 °F 78% 29.92 in 10.0 mi SSW 13.8 mph - N/A Rain Light Rain
5:55 PM 72.5 °F - 66.0 °F 80% 29.91 in 10.0 mi SSW 13.8 mph - 0.00 in Rain Light Rain
6:04 PM 71.6 °F - 66.2 °F 83% 29.93 in 2.5 mi WSW 11.5 mph - N/A Rain Light Rain
6:05 PM 71.6 °F - 66.2 °F 83% 29.93 in 2.0 mi SW 13.8 mph - N/A Rain Light Rain
6:14 PM 69.8 °F - 66.2 °F 88% 29.93 in 7.0 mi West 15.0 mph 25.3 mph N/A   Light Drizzle
6:23 PM 66.2 °F - 62.6 °F 88% 29.93 in 10.0 mi NW 17.3 mph 21.9 mph N/A   Overcast
6:55 PM 60.4 °F - 57.7 °F 91% 29.98 in 10.0 mi NW 15.0 mph - N/A   Overcast
7:22 PM 59.0 °F - 55.4 °F 88% 29.98 in 10.0 mi NW 13.8 mph - N/A   Overcast
7:55 PM 56.8 °F - 52.5 °F 85% 30.01 in 10.0 mi NW 15.0 mph 20.7 mph N/A   Overcast
8:55 PM 53.8 °F - 48.4 °F 82% 30.03 in 10.0 mi NW 18.4 mph 24.2 mph N/A   Mostly Cloudy
9:55 PM 50.4 °F - 41.5 °F 72% 30.06 in 10.0 mi NW 20.7 mph 31.1 mph N/A   Overcast
10:55 PM 47.7 °F - 39.6 °F 73% 30.05 in 10.0 mi NNW 12.7 mph 20.7 mph N/A   Partly Cloudy
11:55 PM 46.2 °F 41.7 °F 39.0 °F 76% 30.05 in 10.0 mi NNW 9.2 mph - N/A   Partly Cloudy